Location: Bothwell
(42.3833°S, 147.0000°E)
Time: 08:27:08
(UTC+10:00)

UNISAT 6 - Pass Details

Date: 11 August 2024
Orbit: 589 x 662 km, 97.7° (Epoch: 14 September)

Event Time Altitude Azimuth Distance (km) Brightness Sun altitude
Rises 05:38:28 0° 178° (S) 3,043 ? -17.3°
Reaches altitude 10° 05:40:56 10° 188° (S) 2,125 ? -16.8°
Maximum altitude 05:44:57 30° 248° (WSW) 1,210 ? -16.1°
Enters shadow 05:46:07 27° 275° (W) 1,306 ? -15.9°
